TAR9119 LEMD-DTTA

Flight info

Callsign TAR9119
Flight time 1h 39m
Altitude 40000
Route NANDO T257 LASPO Z224 NINES/N0445F390 DCT OLMIR DCT XARON DCT GENIO DCT LUXUR UM134 ANB UA411 MORJA UM978 KEMIR UA411 TUC
Aircraft A333/H-SDE3GHIJ2J3J5M1RVWXY/LB2D1

Departure

Time 2026-05-06 14:15
Airport Adolfo Suárez Madrid–Barajas Airport (LEMD)

Arrival

Time 2026-05-06 15:54
Airport Tunis Carthage International Airport (DTTA)
Time Latitude Longitude Altitude Speed Heading
2026-05-06 14:13 40.49060 -3.57150 1988 ft 2 kts 255°
2026-05-06 14:14 40.49059 -3.57187 1989 ft 7 kts 265°
2026-05-06 14:14 40.49062 -3.57278 1990 ft 12 kts 282°
2026-05-06 14:14 40.49099 -3.57352 1991 ft 11 kts 313°
2026-05-06 14:14 40.49175 -3.57440 1990 ft 18 kts 336°
2026-05-06 14:15 40.49322 -3.57457 1989 ft 25 kts
2026-05-06 14:15 40.49684 -3.57453 1989 ft 88 kts
2026-05-06 14:15 40.50205 -3.57456 1995 ft 137 kts 359°
2026-05-06 14:15 40.51778 -3.57499 2650 ft 181 kts 358°
2026-05-06 14:16 40.53075 -3.57565 3493 ft 204 kts 358°
2026-05-06 14:16 40.54593 -3.57613 4127 ft 232 kts
2026-05-06 14:16 40.56249 -3.57205 4943 ft 252 kts 19°
2026-05-06 14:16 40.57912 -3.56497 6261 ft 248 kts 17°
2026-05-06 14:17 40.59548 -3.55847 7603 ft 244 kts 16°
2026-05-06 14:17 40.61178 -3.55215 8853 ft 245 kts 16°
2026-05-06 14:17 40.62828 -3.54586 10024 ft 248 kts 15°
2026-05-06 14:17 40.64546 -3.54182 11018 ft 254 kts
2026-05-06 14:18 40.66329 -3.53987 12002 ft 260 kts
2026-05-06 14:18 40.68153 -3.53821 12946 ft 267 kts
2026-05-06 14:18 40.69966 -3.53197 13875 ft 272 kts 28°
2026-05-06 14:18 40.71463 -3.51615 14572 ft 285 kts 50°
2026-05-06 14:19 40.72670 -3.49460 15229 ft 298 kts 56°
2026-05-06 14:19 40.73837 -3.47150 16028 ft 306 kts 56°
2026-05-06 14:19 40.75024 -3.44791 16940 ft 311 kts 56°
2026-05-06 14:19 40.76038 -3.42242 17817 ft 318 kts 70°
2026-05-06 14:20 40.76332 -3.39340 18597 ft 324 kts 95°
2026-05-06 14:20 40.75675 -3.36502 19296 ft 329 kts 121°
2026-05-06 14:20 40.74380 -3.33985 20023 ft 334 kts 129°
2026-05-06 14:20 40.72947 -3.31550 20778 ft 339 kts 130°
2026-05-06 14:21 40.71469 -3.29102 21519 ft 343 kts 134°
2026-05-06 14:21 40.69694 -3.27024 22215 ft 344 kts 152°
2026-05-06 14:21 40.68281 -3.26039 22470 ft 351 kts 160°
2026-05-06 14:21 40.65164 -3.24369 22912 ft 372 kts 163°
2026-05-06 14:22 40.62725 -3.23129 23216 ft 388 kts 163°
2026-05-06 14:22 40.60127 -3.21793 23517 ft 404 kts 162°
2026-05-06 14:22 40.57511 -3.20431 23894 ft 414 kts 162°
2026-05-06 14:22 40.54809 -3.19014 24412 ft 419 kts 162°
2026-05-06 14:23 40.52092 -3.17585 24960 ft 423 kts 162°
2026-05-06 14:23 40.50241 -3.16610 25334 ft 425 kts 162°
2026-05-06 14:23 40.46578 -3.14683 26065 ft 430 kts 162°
2026-05-06 14:23 40.44730 -3.13712 26429 ft 432 kts 162°
2026-05-06 14:24 40.41936 -3.12208 26964 ft 436 kts 160°
2026-05-06 14:24 40.39295 -3.10171 27544 ft 446 kts 147°
2026-05-06 14:24 40.36869 -3.07577 28052 ft 452 kts 143°
2026-05-06 14:24 40.33686 -3.03925 28746 ft 458 kts 143°
2026-05-06 14:25 40.31280 -3.01157 29243 ft 462 kts 143°
2026-05-06 14:25 40.28850 -2.98375 29748 ft 465 kts 143°
2026-05-06 14:25 40.26405 -2.95585 30224 ft 468 kts 143°
2026-05-06 14:25 40.23971 -2.92816 30650 ft 471 kts 143°
2026-05-06 14:26 40.21485 -2.89994 31052 ft 474 kts 144°
2026-05-06 14:26 40.18988 -2.87163 31577 ft 475 kts 144°
2026-05-06 14:26 40.16489 -2.84323 32046 ft 477 kts 143°
2026-05-06 14:26 40.14202 -2.81146 32658 ft 483 kts 130°
2026-05-06 14:27 40.13025 -2.78661 33057 ft 488 kts 120°
2026-05-06 14:27 40.11806 -2.74493 33673 ft 491 kts 111°
2026-05-06 14:27 40.10835 -2.70207 34204 ft 491 kts 109°
2026-05-06 14:27 40.09896 -2.65912 34625 ft 491 kts 109°
2026-05-06 14:28 40.08950 -2.61622 34991 ft 493 kts 110°
2026-05-06 14:28 40.07989 -2.57319 35382 ft 494 kts 110°
2026-05-06 14:28 40.07022 -2.53023 35848 ft 493 kts 110°
2026-05-06 14:28 40.06049 -2.48726 36251 ft 493 kts 110°
2026-05-06 14:29 40.05071 -2.44426 36656 ft 494 kts 110°
2026-05-06 14:29 40.04090 -2.40127 37052 ft 494 kts 110°
2026-05-06 14:29 40.03108 -2.35834 37472 ft 495 kts 110°
2026-05-06 14:29 40.02134 -2.31582 37865 ft 495 kts 110°
2026-05-06 14:30 40.01131 -2.27215 38263 ft 495 kts 110°
2026-05-06 14:30 40.00153 -2.22966 38609 ft 496 kts 110°
2026-05-06 14:30 39.99157 -2.18661 38907 ft 495 kts 111°
2026-05-06 14:30 39.97971 -2.14468 39234 ft 491 kts 119°
2026-05-06 14:31 39.96323 -2.10611 39556 ft 484 kts 127°
2026-05-06 14:31 39.94509 -2.06892 39840 ft 486 kts 126°
2026-05-06 14:31 39.91112 -1.99275 39944 ft 492 kts 123°
2026-05-06 14:32 39.87803 -1.91439 39941 ft 493 kts 123°
2026-05-06 14:32 39.84504 -1.83601 39940 ft 493 kts 123°
2026-05-06 14:33 39.81185 -1.75789 39937 ft 493 kts 123°
2026-05-06 14:33 39.77845 -1.67983 39931 ft 493 kts 123°
2026-05-06 14:34 39.74494 -1.60180 39938 ft 494 kts 123°
2026-05-06 14:34 39.71161 -1.52438 39935 ft 495 kts 123°
2026-05-06 14:35 39.67798 -1.44645 39956 ft 495 kts 123°
2026-05-06 14:35 39.64428 -1.36856 39968 ft 495 kts 124°
2026-05-06 14:36 39.61042 -1.29052 39973 ft 495 kts 124°
2026-05-06 14:36 39.57663 -1.21280 39976 ft 495 kts 124°
2026-05-06 14:37 39.54274 -1.13508 39958 ft 495 kts 124°
2026-05-06 14:37 39.50883 -1.05755 39958 ft 494 kts 124°
2026-05-06 14:38 39.47511 -0.98065 39947 ft 494 kts 124°
2026-05-06 14:38 39.44117 -0.90342 39937 ft 494 kts 124°
2026-05-06 14:39 39.40725 -0.82609 39936 ft 494 kts 124°
2026-05-06 14:39 39.37326 -0.74899 39934 ft 494 kts 124°
2026-05-06 14:40 39.33911 -0.67192 39936 ft 494 kts 125°
2026-05-06 14:40 39.30491 -0.59491 39941 ft 494 kts 125°
2026-05-06 14:41 39.27683 -0.51346 39938 ft 502 kts 112°
2026-05-06 14:41 39.25722 -0.42687 39939 ft 504 kts 109°
2026-05-06 14:42 39.23931 -0.33982 39945 ft 504 kts 109°
2026-05-06 14:42 39.22136 -0.25236 39945 ft 504 kts 109°
2026-05-06 14:43 39.20312 -0.16502 39939 ft 504 kts 109°
2026-05-06 14:43 39.18468 -0.07776 39939 ft 504 kts 109°
2026-05-06 14:44 39.16615 0.00940 39928 ft 504 kts 109°
2026-05-06 14:45 39.13824 0.14009 39939 ft 504 kts 109°
2026-05-06 14:45 39.11955 0.22720 39924 ft 504 kts 110°
2026-05-06 14:46 39.10081 0.31420 39942 ft 504 kts 110°
2026-05-06 14:46 39.08208 0.40080 39936 ft 504 kts 110°
2026-05-06 14:47 39.06321 0.48773 39940 ft 504 kts 110°
2026-05-06 14:47 39.04429 0.57456 39942 ft 504 kts 110°
2026-05-06 14:48 39.02527 0.66146 39939 ft 504 kts 110°
2026-05-06 14:48 39.00617 0.74836 39939 ft 504 kts 110°
2026-05-06 14:49 38.98701 0.83518 39940 ft 504 kts 110°
2026-05-06 14:49 38.96780 0.92186 39937 ft 504 kts 110°
2026-05-06 14:50 38.94864 1.00801 39939 ft 504 kts 110°
2026-05-06 14:50 38.92930 1.09470 39935 ft 504 kts 110°
2026-05-06 14:51 38.90990 1.18133 39931 ft 504 kts 110°
2026-05-06 14:51 38.89041 1.26803 39939 ft 504 kts 110°
2026-05-06 14:52 38.87088 1.35455 39939 ft 505 kts 111°
2026-05-06 14:52 38.85013 1.43991 39937 ft 504 kts 112°
2026-05-06 14:53 38.82818 1.52512 39937 ft 504 kts 113°
2026-05-06 14:53 38.80612 1.61042 39932 ft 504 kts 113°
2026-05-06 14:54 38.78416 1.69575 39930 ft 504 kts 113°
2026-05-06 14:54 38.76223 1.78109 39929 ft 504 kts 113°
2026-05-06 14:55 38.74024 1.86641 39929 ft 504 kts 113°
2026-05-06 14:55 38.71815 1.95181 39925 ft 504 kts 113°
2026-05-06 14:56 38.69603 2.03698 39927 ft 504 kts 113°
2026-05-06 14:56 38.67398 2.12160 39927 ft 504 kts 113°
2026-05-06 14:57 38.64764 2.20417 39925 ft 499 kts 120°
2026-05-06 14:57 38.61831 2.28473 39917 ft 499 kts 121°
2026-05-06 14:58 38.58836 2.36491 39925 ft 500 kts 121°
2026-05-06 14:58 38.55836 2.44504 39925 ft 500 kts 121°
2026-05-06 14:59 38.53341 2.51176 39925 ft 500 kts 121°
2026-05-06 14:59 38.49858 2.60488 39925 ft 500 kts 121°
2026-05-06 15:00 38.46856 2.68498 39916 ft 500 kts 121°
2026-05-06 15:00 38.43842 2.76517 39928 ft 500 kts 121°
2026-05-06 15:01 38.40828 2.84510 39926 ft 501 kts 121°
2026-05-06 15:01 38.37801 2.92523 39925 ft 500 kts 121°
2026-05-06 15:02 38.34778 3.00510 39925 ft 500 kts 121°
2026-05-06 15:02 38.31767 3.08443 39922 ft 500 kts 121°
2026-05-06 15:03 38.28898 3.16526 39925 ft 503 kts 116°
2026-05-06 15:03 38.26388 3.24849 39925 ft 504 kts 115°
2026-05-06 15:04 38.23945 3.33217 39925 ft 504 kts 115°
2026-05-06 15:04 38.21501 3.41587 39922 ft 504 kts 115°
2026-05-06 15:05 38.18967 3.49915 39923 ft 503 kts 116°
2026-05-06 15:05 38.16396 3.58122 39922 ft 503 kts 117°
2026-05-06 15:06 38.13800 3.66381 39923 ft 503 kts 117°
2026-05-06 15:06 38.11207 3.74639 39917 ft 504 kts 117°
2026-05-06 15:07 38.08601 3.82930 39912 ft 505 kts 117°
2026-05-06 15:07 38.05993 3.91209 39921 ft 506 kts 117°
2026-05-06 15:08 38.03376 3.99490 39923 ft 506 kts 117°
2026-05-06 15:08 38.00750 4.07776 39924 ft 505 kts 117°
2026-05-06 15:09 37.98124 4.16039 39921 ft 505 kts 117°
2026-05-06 15:09 37.95504 4.24259 39930 ft 506 kts 117°
2026-05-06 15:10 37.92860 4.32527 39927 ft 506 kts 117°
2026-05-06 15:10 37.90210 4.40793 39924 ft 506 kts 117°
2026-05-06 15:11 37.87557 4.49044 39928 ft 506 kts 117°
2026-05-06 15:11 37.84894 4.57303 39923 ft 507 kts 118°
2026-05-06 15:12 37.82665 4.64191 39917 ft 510 kts 118°
2026-05-06 15:12 37.79974 4.72488 39919 ft 510 kts 118°
2026-05-06 15:13 37.76816 4.82201 39915 ft 510 kts 118°
2026-05-06 15:13 37.74573 4.89076 39916 ft 510 kts 118°
2026-05-06 15:14 37.71860 4.97371 39907 ft 510 kts 118°
2026-05-06 15:14 37.68827 5.07087 39914 ft 513 kts 116°
2026-05-06 15:15 37.66757 5.14115 39917 ft 513 kts 116°
2026-05-06 15:15 37.64274 5.22552 39917 ft 513 kts 116°
2026-05-06 15:16 37.61745 5.31048 39913 ft 513 kts 116°
2026-05-06 15:16 37.59237 5.39408 39876 ft 513 kts 116°
2026-05-06 15:17 37.56697 5.47837 39912 ft 516 kts 117°
2026-05-06 15:17 37.54138 5.56299 39906 ft 518 kts 117°
2026-05-06 15:18 37.51561 5.64808 39913 ft 518 kts 117°
2026-05-06 15:18 37.48984 5.73291 39899 ft 518 kts 117°
2026-05-06 15:19 37.46397 5.81776 39913 ft 519 kts 117°
2026-05-06 15:19 37.43806 5.90252 39911 ft 520 kts 117°
2026-05-06 15:20 37.41215 5.98701 39909 ft 520 kts 117°
2026-05-06 15:20 37.38607 6.07182 39908 ft 519 kts 117°
2026-05-06 15:21 37.35991 6.15659 39907 ft 520 kts 117°
2026-05-06 15:21 37.33373 6.24119 39909 ft 520 kts 117°
2026-05-06 15:22 37.30747 6.32579 39896 ft 519 kts 117°
2026-05-06 15:22 37.28107 6.41059 39915 ft 523 kts 117°
2026-05-06 15:23 37.25446 6.49575 39908 ft 525 kts 117°
2026-05-06 15:23 37.22772 6.58112 39914 ft 526 kts 117°
2026-05-06 15:24 37.20086 6.66667 39910 ft 527 kts 117°
2026-05-06 15:24 37.17414 6.75151 39914 ft 526 kts 117°
2026-05-06 15:25 37.14715 6.83693 39916 ft 526 kts 117°
2026-05-06 15:25 37.12010 6.92225 39911 ft 526 kts 117°
2026-05-06 15:26 37.09297 7.00760 39913 ft 526 kts 117°
2026-05-06 15:26 37.06596 7.09230 39915 ft 526 kts 117°
2026-05-06 15:27 37.03876 7.17736 39913 ft 526 kts 117°
2026-05-06 15:27 37.01147 7.26245 39894 ft 526 kts 117°
2026-05-06 15:28 36.98411 7.34751 39914 ft 527 kts 117°
2026-05-06 15:28 36.95660 7.43276 39914 ft 528 kts 117°
2026-05-06 15:29 36.92911 7.51773 39912 ft 528 kts 118°
2026-05-06 15:29 36.90151 7.60280 39914 ft 528 kts 117°
2026-05-06 15:30 36.87388 7.68772 39911 ft 527 kts 118°
2026-05-06 15:30 36.84650 7.77194 39912 ft 528 kts 115°
2026-05-06 15:30 36.83665 7.81694 39909 ft 535 kts 103°
2026-05-06 15:31 36.83328 7.86281 39915 ft 538 kts 95°
2026-05-06 15:31 36.83195 7.95655 39911 ft 540 kts 91°
2026-05-06 15:32 36.83343 8.09733 39910 ft 541 kts 91°
2026-05-06 15:32 36.83409 8.19122 39909 ft 540 kts 91°
2026-05-06 15:33 36.83438 8.28455 39903 ft 540 kts 91°
2026-05-06 15:33 36.83451 8.37831 39905 ft 540 kts 91°
2026-05-06 15:34 36.83456 8.47243 39910 ft 540 kts 91°
2026-05-06 15:34 36.83454 8.56625 39921 ft 540 kts 91°
2026-05-06 15:35 36.83451 8.66005 39930 ft 540 kts 91°
2026-05-06 15:35 36.83499 8.75382 39931 ft 540 kts 90°
2026-05-06 15:36 36.83565 8.84760 39938 ft 539 kts 90°
2026-05-06 15:36 36.83621 8.94063 39935 ft 539 kts 91°
2026-05-06 15:37 36.83664 9.03419 39919 ft 540 kts 91°
2026-05-06 15:37 36.83682 9.08119 39425 ft 539 kts 91°
2026-05-06 15:37 36.83697 9.12800 38187 ft 541 kts 90°
2026-05-06 15:38 36.83711 9.17539 36564 ft 549 kts 90°
2026-05-06 15:38 36.83723 9.22317 34986 ft 556 kts 90°
2026-05-06 15:38 36.83733 9.27176 33350 ft 562 kts 90°
2026-05-06 15:38 36.83742 9.32077 31840 ft 561 kts 90°
2026-05-06 15:39 36.83749 9.36888 30645 ft 550 kts 90°
2026-05-06 15:39 36.83903 9.41605 29483 ft 537 kts 81°
2026-05-06 15:39 36.84697 9.46098 28174 ft 523 kts 74°
2026-05-06 15:39 36.85658 9.50413 27213 ft 506 kts 74°
2026-05-06 15:40 36.86611 9.54537 26339 ft 485 kts 75°
2026-05-06 15:40 36.87534 9.58538 25001 ft 479 kts 75°
2026-05-06 15:40 36.88439 9.62475 23715 ft 474 kts 75°
2026-05-06 15:40 36.89332 9.66370 23038 ft 453 kts 76°
2026-05-06 15:41 36.90170 9.70026 23005 ft 419 kts 76°
2026-05-06 15:41 36.90945 9.73417 22690 ft 397 kts 76°
2026-05-06 15:41 36.91692 9.76701 21841 ft 393 kts 76°
2026-05-06 15:41 36.92438 9.79989 20966 ft 391 kts 77°
2026-05-06 15:42 36.93173 9.83234 20175 ft 387 kts 77°
2026-05-06 15:42 36.93903 9.86463 19333 ft 384 kts 77°
2026-05-06 15:42 36.94627 9.89665 18583 ft 381 kts 77°
2026-05-06 15:42 36.95344 9.92837 17775 ft 378 kts 78°
2026-05-06 15:43 36.96052 9.95967 17064 ft 369 kts 78°
2026-05-06 15:43 36.96745 9.99036 16323 ft 363 kts 79°
2026-05-06 15:43 36.97417 10.02017 15603 ft 357 kts 79°
2026-05-06 15:43 36.98092 10.05016 14895 ft 351 kts 80°
2026-05-06 15:44 36.98745 10.07924 14196 ft 344 kts 81°
2026-05-06 15:44 36.99387 10.10781 13511 ft 338 kts 81°
2026-05-06 15:44 37.00003 10.13536 12832 ft 330 kts 81°
2026-05-06 15:44 37.00616 10.16300 11890 ft 326 kts 81°
2026-05-06 15:45 37.01206 10.19049 10782 ft 327 kts 81°
2026-05-06 15:45 37.01772 10.21806 9687 ft 326 kts 81°
2026-05-06 15:45 37.02340 10.24526 8514 ft 323 kts 77°
2026-05-06 15:45 37.03096 10.27165 7383 ft 321 kts 71°
2026-05-06 15:46 37.04032 10.29682 6277 ft 317 kts 66°
2026-05-06 15:46 37.05151 10.32002 5182 ft 313 kts 53°
2026-05-06 15:46 37.06703 10.33846 4290 ft 302 kts 40°
2026-05-06 15:46 37.08431 10.35236 3438 ft 291 kts 28°
2026-05-06 15:47 37.10352 10.35773 2818 ft 279 kts
2026-05-06 15:47 37.12186 10.35201 2272 ft 269 kts 333°
2026-05-06 15:47 37.13550 10.33640 2037 ft 268 kts 303°
2026-05-06 15:47 37.14032 10.31498 1983 ft 245 kts 265°
2026-05-06 15:48 37.13456 10.29673 1984 ft 217 kts 224°
2026-05-06 15:48 37.12217 10.28886 1982 ft 192 kts 178°
2026-05-06 15:48 37.10883 10.29050 2006 ft 199 kts 171°
2026-05-06 15:48 37.09479 10.29119 2004 ft 205 kts 178°
2026-05-06 15:49 37.08064 10.28933 2018 ft 204 kts 186°
2026-05-06 15:49 37.06676 10.28580 2010 ft 200 kts 189°
2026-05-06 15:49 37.05320 10.28202 1998 ft 198 kts 188°
2026-05-06 15:49 37.03998 10.27838 2000 ft 197 kts 188°
2026-05-06 15:50 37.02657 10.27477 2010 ft 197 kts 189°
2026-05-06 15:50 37.01303 10.27115 2003 ft 199 kts 190°
2026-05-06 15:50 36.99947 10.26749 2001 ft 200 kts 190°
2026-05-06 15:50 36.98592 10.26379 2004 ft 198 kts 190°
2026-05-06 15:51 36.97314 10.26026 1976 ft 174 kts 190°
2026-05-06 15:51 36.96219 10.25724 1954 ft 150 kts 189°
2026-05-06 15:51 36.95245 10.25459 1774 ft 137 kts 189°
2026-05-06 15:51 36.94343 10.25215 1580 ft 130 kts 189°
2026-05-06 15:52 36.93760 10.25056 1459 ft 129 kts 188°
2026-05-06 15:52 36.92595 10.24740 1240 ft 130 kts 189°
2026-05-06 15:52 36.91714 10.24499 1055 ft 129 kts 189°
2026-05-06 15:52 36.90839 10.24268 878 ft 129 kts 190°
2026-05-06 15:53 36.89967 10.24031 665 ft 127 kts 192°
2026-05-06 15:53 36.89098 10.23796 525 ft 129 kts 190°
2026-05-06 15:53 36.88224 10.23552 357 ft 128 kts 192°
2026-05-06 15:53 36.87350 10.23305 178 ft 129 kts 190°
2026-05-06 15:54 36.86474 10.23076 47 ft 129 kts 190°
2026-05-06 15:54 36.85685 10.22860 34 ft 97 kts 194°
2026-05-06 15:54 36.85179 10.22720 38 ft 65 kts 192°
2026-05-06 15:54 36.84831 10.22624 36 ft 43 kts 193°
2026-05-06 15:55 36.84564 10.22528 32 ft 25 kts 219°
2026-05-06 15:55 36.84485 10.22348 34 ft 23 kts 264°
2026-05-06 15:55 36.84484 10.22242 34 ft 11 kts 282°
2026-05-06 15:55 36.84503 10.22141 34 ft 12 kts 280°
2026-05-06 15:56 36.84497 10.22117 34 ft 1 kts 229°
2026-05-06 15:56 36.84492 10.22116 34 ft 1 kts 198°
2026-05-06 15:56 36.84468 10.22110 34 ft 7 kts 191°
2026-05-06 15:56 36.84409 10.22093 34 ft 10 kts 199°
2026-05-06 15:57 36.84384 10.22070 34 ft 0 kts 232°